Flag for Germany Weather past 2 weeks in Gross-Gerau, Hesse, Germany

39 °F

Light rain. Passing clouds.

Feels Like: 34 °F
Forecast: 38 / 45 °F
Wind: 7 mph from North

Location: Frankfurt-M-Flughafen Airport

Current Time: Oct 14, 2015 at 6:03:54 AM

Latest Report: Oct 14, 2015 at 5:20 AM

Visibility: 3 mi

Pressure: 30.01 "Hg

Humidity: 87%

Dew point: 36 °F

Location of Gross-GerauLocation

Historic Weather in Gross-Gerau — Graph


Gross-Gerau temperature yesterday

Maximum temperature yesterday: 52 °F (at 3:20 PM)
Minimum temperature yesterday: 37 °F (at 6:20 AM)
Average temperature yesterday: 43 °F

Past Weeks' High & Low Weather Summary

High68 °F (Oct 2, 3:20 PM)100% (Oct 4, 2:20 AM)30.54 "Hg (Oct 4, 2:20 AM)
Low36 °F (Oct 12, 7:50 AM)32% (Oct 1, 3:50 PM)29.65 "Hg (Oct 6, 4:20 PM)
Average54 °F72%30.09 "Hg
* Reported Sep 29 4:20 AM — Oct 14 4:50 AM, Gross-Gerau, Weather by CustomWeather, © 2015

Note: Actual official high and low records may vary slightly from our data, if they occured in-between our weather recording intervals... More about our weather records


Gross-Gerau weather history for previous 24 hours

Time TempWeatherWind HumidityBarometerVisibility
4:50 AM
Wed, Oct 14
39 °FLight rain. Passing clouds.8 mph87%30.01 "Hg4 mi
4:20 AM41 °FPartly cloudy.12 mph76%30.01 "Hg6 mi
3:50 AM41 °FPassing clouds.10 mph76%30.01 "Hg6 mi
3:20 AM41 °FPassing clouds.10 mph76%30.04 "Hg6 mi
2:50 AM41 °FPartly cloudy.9 mph76%30.04 "Hg6 mi
2:20 AM41 °FPassing clouds.9 mph76%30.04 "Hg6 mi
1:50 AM41 °FPassing clouds.9 mph76%30.04 "Hg6 mi
1:20 AM41 °FPassing clouds.12 mph76%30.04 "Hg6 mi
12:50 AM41 °FPassing clouds.13 mph76%30.04 "Hg6 mi
12:20 AM41 °FPassing clouds.10 mph76%30.04 "Hg6 mi
11:20 PM
Tue, Oct 13
41 °FPassing clouds.13 mph76%30.04 "Hg6 mi
10:50 PM41 °FPassing clouds.16 mph76%30.04 "Hg6 mi
10:20 PM41 °FPartly cloudy.14 mph81%30.04 "HgN/A
9:50 PM43 °FPartly cloudy.17 mph76%30.01 "HgN/A
9:20 PM43 °FPassing clouds.15 mph71%30.01 "HgN/A
8:50 PM43 °FPassing clouds.14 mph76%30.01 "HgN/A
8:20 PM43 °FPassing clouds.13 mph76%30.01 "HgN/A
7:50 PM45 °FPassing clouds.9 mph71%30.01 "HgN/A
7:20 PM45 °FBroken clouds.15 mph71%30.01 "HgN/A
6:50 PM45 °FPartly sunny.14 mph71%29.98 "HgN/A
6:20 PM45 °FPartly sunny.9 mph71%29.98 "HgN/A
5:50 PM46 °FPartly sunny.12 mph66%29.98 "HgN/A
5:20 PM46 °FPartly sunny.12 mph66%29.98 "HgN/A
4:50 PM48 °FPartly sunny.15 mph66%29.98 "HgN/A
4:20 PM50 °FPartly sunny.14 mph62%29.95 "HgN/A
3:50 PM52 °FBroken clouds.12 mph62%29.95 "HgN/A
3:20 PM52 °FSunny.10 mph62%29.95 "Hg10 mi
2:50 PM50 °FPassing clouds.12 mph62%29.95 "HgN/A
2:20 PM50 °FPassing clouds.10 mph67%29.95 "HgN/A
1:50 PM50 °FPassing clouds.10 mph67%29.95 "HgN/A
1:20 PM50 °FSunny.13 mph62%29.95 "Hg10 mi
12:50 PM48 °FSunny.13 mph62%29.98 "Hg10 mi
12:20 PM46 °FPassing clouds.13 mph66%29.98 "HgN/A
11:50 AM46 °FSunny.12 mph66%29.98 "Hg10 mi
11:20 AM45 °FSunny.13 mph71%29.98 "Hg10 mi
10:50 AM43 °FPassing clouds.12 mph71%29.98 "HgN/A
10:20 AM43 °FSunny.12 mph71%29.98 "Hg10 mi
9:50 AM41 °FSunny.12 mph76%29.98 "Hg10 mi
9:20 AM39 °FSunny.12 mph81%29.98 "Hg10 mi
8:50 AM39 °FSunny.9 mph75%29.98 "Hg10 mi
8:20 AM37 °FClear.10 mph81%29.95 "Hg10 mi
7:50 AM37 °FClear.12 mph81%29.95 "Hg10 mi
7:20 AM37 °FClear.12 mph81%29.95 "Hg10 mi
6:50 AM37 °FClear.9 mph81%29.95 "Hg10 mi
6:20 AM37 °FClear.10 mph81%29.98 "Hg10 mi
Weather by CustomWeather, © 2015

See weather overviewHow to use our weather pages